TimeCDT,TemperatureF,Dew PointF,Humidity,Sea Level PressureIn,VisibilityMPH,Wind Direction,Wind SpeedMPH,Gust SpeedMPH,PrecipitationIn,Events,Conditions,WindDirDegrees,DateUTC
12:54 AM,72.0,64.0,76,30.01,10.0,Calm,Calm,-,N/A,,Partly Cloudy,0,2013-10-04 05:54:00
1:54 AM,69.1,64.9,87,30.01,10.0,Calm,Calm,-,N/A,,Clear,0,2013-10-04 06:54:00
2:54 AM,71.1,64.0,78,30.01,10.0,South,3.5,-,N/A,,Clear,170,2013-10-04 07:54:00
3:54 AM,71.1,64.9,81,30.01,10.0,Calm,Calm,-,N/A,,Partly Cloudy,0,2013-10-04 08:54:00
4:54 AM,70.0,64.9,84,30.02,10.0,SE,3.5,-,N/A,,Mostly Cloudy,140,2013-10-04 09:54:00
5:54 AM,69.1,64.9,87,30.04,10.0,Calm,Calm,-,N/A,,Partly Cloudy,0,2013-10-04 10:54:00
6:54 AM,69.1,64.9,87,30.05,10.0,South,3.5,-,N/A,,Mostly Cloudy,180,2013-10-04 11:54:00
7:54 AM,70.0,66.0,87,30.06,9.0,SSE,4.6,-,N/A,,Mostly Cloudy,160,2013-10-04 12:54:00
8:54 AM,73.9,66.9,79,30.06,10.0,SSW,5.8,-,N/A,,Overcast,200,2013-10-04 13:54:00
9:54 AM,75.9,68.0,76,30.06,10.0,SSW,10.4,-,N/A,,Clear,200,2013-10-04 14:54:00
10:54 AM,79.0,69.1,72,30.06,10.0,SW,6.9,-,N/A,,Clear,220,2013-10-04 15:54:00
11:54 AM,82.0,70.0,67,30.05,10.0,Variable,4.6,-,N/A,,Scattered Clouds,0,2013-10-04 16:54:00
12:54 PM,82.9,70.0,65,30.03,10.0,SSE,4.6,-,0.00,,Partly Cloudy,150,2013-10-04 17:54:00
1:40 PM,77.0,71.6,83,30.04,1.8,South,5.8,-,0.03,Rain,Heavy Rain,190,2013-10-04 18:40:00
1:54 PM,75.9,72.0,87,30.03,2.0,SSE,5.8,-,0.11,Rain,Light Rain,150,2013-10-04 18:54:00
2:02 PM,75.2,71.6,89,30.03,9.0,SE,6.9,-,0.00,,Overcast,130,2013-10-04 19:02:00
2:54 PM,77.0,72.0,84,30.01,10.0,SE,4.6,-,0.00,,Scattered Clouds,140,2013-10-04 19:54:00
3:54 PM,81.0,70.0,69,29.99,10.0,ESE,3.5,-,N/A,,Scattered Clouds,120,2013-10-04 20:54:00
4:54 PM,82.9,70.0,65,29.98,10.0,SE,8.1,-,N/A,,Scattered Clouds,140,2013-10-04 21:54:00
5:54 PM,81.0,70.0,69,29.99,10.0,SSE,3.5,-,N/A,,Clear,150,2013-10-04 22:54:00
6:54 PM,79.0,69.1,72,30.00,10.0,SSE,4.6,-,N/A,,Mostly Cloudy,160,2013-10-04 23:54:00
7:54 PM,78.1,69.1,74,30.01,10.0,SSE,3.5,-,N/A,,Mostly Cloudy,160,2013-10-05 00:54:00
8:54 PM,78.1,69.1,74,30.02,10.0,SSE,4.6,-,N/A,,Overcast,160,2013-10-05 01:54:00
9:54 PM,77.0,70.0,79,30.03,10.0,SSE,4.6,-,N/A,,Overcast,150,2013-10-05 02:54:00
10:54 PM,77.0,69.1,76,30.03,10.0,SSE,5.8,-,N/A,,Clear,160,2013-10-05 03:54:00
11:54 PM,75.0,69.1,82,30.01,10.0,South,4.6,-,N/A,,Partly Cloudy,170,2013-10-05 04:54:00